Погода в Балаганах

Россия / Тюменская область     56°39′35″N   70°38′30″E
темп.,
°C
ветер,
м/с
пор.,
м/с
влажн.,
%
обл.,
%
осадки,
мм/ч
давл.,
гПа
погр.,
м
3 марта, ср
ср323:00−19ю499884 0.1 1011171
02:00−19ю599782 0.0 1009176
05:00−18ю6119684 0.0 1008246
08:00−17ю7129499 0.0 1007339
11:00−14ююз71293100 0.1 1006483
14:00−12ююз71293100 0.8 1005671
17:00−9ююз71293100 1.3 1005730
20:00−8ююз71392100 0.3 1004574
4 марта, чт
чт423:00−8ююз61194100 0.5 1004422
02:00−7ю51095100 0.3 1003327
05:00−5ююз51195100 0.9 1003454
08:00−5ююз61294100 0.5 1001478
11:00−3ю61094100 0.7 1000588
14:00−1ю61097100 0.6 997704
17:000ююз51096100 1.5 996676
20:00−1юз4998100 0.8 995421
5 марта, пт
пт523:00−3з51196100 2.3 996588
02:00−8юз61293100 0.3 998410
05:00−10юз51193100 0.4 1000286
08:00−11юз6119483 0.0 1002340
11:00−9юз7119392 0.1 1003616
14:00−6юз61193100 0.7 1003836
17:00−4ююз3696100 0.9 1004287
20:00−4юз5119096 0.1 1004325
6 марта, сб
сб623:00−4ююз379798 0.6 1004200
02:00−2ююз61197100 1.8 1002658
05:00−2ююз71395100 2.8 1000689
08:00−2ююз81494100 0.8 997736
11:000юз101699100 3.3 9951076
14:00−1зсз91285100 1.4 999980
17:00−5з61284100 1.5 1004684
20:00−9з5139187 0.0 1007380
7 марта, вс
вс723:00−11зюз499691 0.1 1009209
02:00−15юз349785 0.0 101081
05:00−14ю339693 0.0 101071
08:00−12юв2296100 0.4 1007119
11:00−9в3594100 1.2 1004292
14:00−7всв4694100 1.2 1002513
17:00−7ссз4694100 2.1 1002524
20:00−11зсз489690 0.2 1006163